#timestamp,LO_Frequency,Hit,StdDev 
1510178415.8,286047001.9,P
1510178435.7,286047001.4,N
1510178455.5,286047002.2,N
1510178475.3,286047005.5,N
1510178495.2,286047004.4,N
1510178515.9,286047003.2,N
1510178535.7,286047005.5,N
1510178555.6,286047005.2,N
1510178575.4,286047004.9,N
1510178595.2,286047003.4,N
1510178615.0,286047003.6,N
1510178616.0,286047003.6,N
1510178635.8,286047005.8,Y
1510178655.6,286047000.6,P
1510178675.5,286046999.9,N
1510178695.3,286047002.4,N
1510178715.1,286047003.0,N
1510178735.9,286047005.1,Y
1510178755.7,286047003.8,P
1510178775.5,286047003.1,P
1510178795.3,286046999.8,N
1510178815.2,286046997.0,N
1510178835.0,286046996.9,N
1510178835.9,286046996.9,N
1510178855.7,286046996.1,N
1510178875.6,286046995.4,N
1510178895.4,286046994.1,N
1510178915.2,286046989.6,Y
1510178935.1,286046990.1,P
1510178936.0,286046990.1,N
1510178955.8,286046994.0,N
1510178975.6,286046992.8,N
1510178995.5,286046991.2,N
1510179015.3,286046989.0,Y
1510179035.1,286046997.0,P
1510179055.9,286046999.6,N
1510179075.7,286047002.6,N
1510179095.5,286047005.7,N
1510179115.4,286047003.2,N
1510179135.2,286047005.6,N
1510179155.0,286047007.2,N
1510179155.9,286047007.2,N
1510179175.8,286047005.6,N
1510179195.6,286047004.1,N
1510179215.4,286047003.8,N
1510179235.3,286047001.5,N
1510179255.1,286047005.5,N
1510179256.0,286047005.5,N
1510179275.8,286047003.2,N
1510179295.6,286047003.8,N
1510179315.5,286047005.2,N
1510179335.3,286047005.8,N
1510179355.1,286047004.8,N
1510179375.9,286047009.2,N
1510179395.7,286047010.7,N
1510179415.5,286047007.8,N
1510179435.4,286047008.2,N
1510179455.2,286047009.0,N
1510179475.0,286047009.0,N
1510179475.9,286047009.0,N
1510179495.8,286047008.0,N
1510179515.6,286047006.6,N
1510179535.4,286047009.0,N
1510179555.3,286047007.6,N
1510179575.1,286047004.7,N
1510179576.0,286047004.7,N
1510179595.8,286047005.1,N
1510179615.7,286047003.3,N
1510179635.5,286047005.9,N
1510179655.3,286047005.1,N
1510179675.1,286047003.5,N
1510179695.9,286047005.6,N
1510179715.7,286047005.6,N
1510179735.5,286047004.8,N
1510179755.4,286047006.5,N
1510179775.2,286047006.1,N
1510179795.0,286047010.7,Y
1510179795.9,286047010.7,P
1510179815.8,286047002.1,N
1510179835.6,286047003.3,N
1510179855.4,286047004.4,N
1510179875.3,286047003.9,N
1510179895.1,286047002.1,N
1510179896.0,286047002.1,N
1510179915.8,286047004.1,N
1510179935.7,286047002.8,N
1510179955.5,286047002.0,N
1510179975.3,286047002.2,N
1510179995.2,286047002.5,N
1510180015.9,286047002.1,N
1510180035.7,286047003.3,N
1510180055.5,286047005.3,N
1510180075.4,286047005.0,N
1510180095.2,286047007.2,Y
1510180115.0,286047002.8,P
1510180116.0,286047002.8,P
1510180135.8,286047000.7,N
1510180155.6,286047001.9,N
1510180175.4,286047002.9,N
1510180195.3,286047004.7,Y
1510180215.1,286047007.5,P
1510180235.8,286047007.0,N
1510180255.7,286047008.6,P
1510180275.5,286047008.9,Y
1510180295.3,286047001.6,P
1510180315.2,286047001.3,N
1510180335.0,286047003.6,N
1510180335.9,286047003.6,N
1510180355.8,286047007.6,Y
1510180375.6,286047002.2,P
1510180395.4,286046999.8,N
1510180415.2,286047005.2,P
1510180435.1,286047006.4,Y
1510180436.0,286047006.4,P
1510180455.8,286047006.0,P
1510180475.6,286047005.8,P
1510180495.5,286047006.0,Y
1510180515.3,286046999.8,P
1510180535.2,286047005.4,N
1510180555.9,286047005.7,N
1510180575.7,286047008.4,Y
1510180595.6,286047004.6,P
1510180615.4,286047008.7,P
1510180635.2,286047009.0,P
1510180655.1,286047007.9,Y
1510180656.0,286047007.9,P
1510180675.8,286047001.7,N
1510180695.6,286046998.2,N
1510180715.4,286046999.2,N
1510180735.3,286046993.3,N
1510180755.1,286046991.9,N
1510180775.8,286046990.9,N
1510180795.7,286046989.9,N
1510180815.5,286046987.1,N
1510180835.3,286046987.3,N
1510180855.2,286046986.4,N
1510180875.9,286046984.1,N
1510180895.7,286046986.3,N
1510180915.6,286046984.1,N
1510180935.4,286046982.2,N
1510180955.2,286046983.5,N
1510180975.1,286046982.1,N
1510180976.0,286046982.1,N
1510180995.8,286046982.8,N
1510181015.6,286046983.2,N
1510181035.5,286046984.2,N
1510181055.3,286046985.9,N
1510181075.1,286046984.1,N
1510181095.8,286046985.6,N
1510181115.7,286046986.1,N
1510181135.5,286046982.4,N
1510181155.3,286046983.1,N
1510181175.2,286046982.4,N
1510181195.9,286046982.3,N
1510181215.7,286046983.1,N
1510181235.6,286046978.9,Y
1510181255.4,286046993.6,P
1510181275.2,286046994.1,N
1510181295.1,286046992.9,N
1510181296.0,286046992.9,N
1510181315.8,286046990.9,Y
1510181335.6,286046998.1,P
1510181355.5,286046999.0,N
1510181375.3,286046996.6,N
1510181395.1,286046996.6,N
1510181415.9,286046994.9,N
1510181435.7,286046998.6,N
1510181455.5,286046998.4,N
1510181475.4,286046999.4,N
1510181495.2,286047001.2,N
1510181515.0,286046999.3,N
1510181515.9,286046999.3,N
1510181535.8,286046997.7,N
1510181555.6,286046994.6,N
1510181575.4,286046994.0,N
1510181595.2,286046993.4,N
1510181615.1,286046993.3,N
1510181616.0,286046993.3,N
1510181635.8,286046993.3,N
1510181655.6,286046999.6,N
1510181675.5,286046996.0,N
1510181695.3,286046994.5,N
1510181715.1,286046994.0,N
1510181735.9,286046997.9,N
1510181755.7,286046995.0,N
1510181775.5,286046995.5,N
1510181795.4,286046995.9,N
1510181815.2,286046997.8,N
1510181835.0,286046994.6,N
1510181835.9,286046994.6,N
1510181855.8,286046994.5,N
1510181875.6,286046997.9,N
1510181895.4,286046999.2,N
1510181915.2,286046996.7,N
1510181935.1,286046998.8,N
1510181936.0,286046998.8,N
1510181955.8,286046998.5,N
1510181975.6,286046998.3,N
1510181995.5,286047000.9,N
